Location: Gilevgi
(36.8751°N, 30.0581°E)
Time: 20:43:32
(UTC+00:00)

Cosmos 1655 Rocket - Pass Details

Date: 11 December 2025
Orbit: 969 x 1006 km, 83.0° (Epoch: 12 January)

Event Time Altitude Azimuth Distance (km) Brightness Sun altitude
Rises 15:23:02 0° 2° (N) 3,676 6.8 -8.0°
Reaches altitude 10° 15:25:46 10° 10° (N) 2,722 6.0 -8.5°
Maximum altitude 15:31:31 38° 78° (ENE) 1,430 4.4 -9.5°
Drops below altitude 10° 15:37:14 10° 145° (SE) 2,703 6.2 -10.6°
Sets 15:39:54 0° 153° (SSE) 3,648 6.9 -11.1°
